Regional Weather Roundup
Issued by NWS

Home | Current Version | Previous Version | Text Only | Print | Product List | Glossary On
Versions: 1 2 3 4 5 6 7 8 9 10 11 12 13 14 15 16 17 18 19 20 21 22 23 24 25 26 27 28 29 30 31 32 33 34 35 36 37 38 39 40 41 42 43 44 45 46 47 48 49 50
000
ASUS45 KABQ 292310
RWRNM
NEW MEXICO REGIONAL WEATHER ROUNDUP
NATIONAL WEATHER SERVICE ALBUQUERQUE NM
500 PM MDT FRI JUL 29 2016

NOTE: "FAIR" MEANS FEW OR NO CLOUDS BELOW 12,000 FEET AGL WITH NO
       SIGNIFICANT WEATHER OR OBSTRUCTIONS TO VISION.

      THIS PRODUCT IS RELEASED AS TWO VERSIONS.  ONE VERSION NEAR
      THE TOP OF THE HOUR CONTAINING PRELIMINARY DATA FROM ALBUQUERQUE
      AND OTHER STATIONS.  A FINAL VERSION WITH ADDITIONAL DATA IS
      ISSUED ABOUT 10 MINUTES AFTER THE HOUR.

NMZ501-503-504-510>518-300000-
NORTHWEST PLATEAU/NORTHCENTRAL MOUNTAINS

CITY           SKY/WX    TMP DP  RH WIND       PRES   REMARKS
FARMINGTON     FAIR      91  29  11 W14G35    30.02F
LOS ALAMOS     CLOUDY    76  35  22 NE6       30.28R
SANTA FE       TSTM      67  50  54 W22G47    30.20R
TAOS           FAIR      77  41  27 SW10      30.23S
ANGEL FIRE     FAIR      67  41  39 SW7       30.33S

$$
NMZ402-403-502-505>509-300000-
WESTCENTRAL MOUNTAINS/SOUTHWEST MOUNTAINS

CITY           SKY/WX    TMP DP  RH WIND       PRES   REMARKS
GALLUP         FAIR      88  33  14 VRB3      30.15F
GRANTS         FAIR      75  45  34 SW14G23   30.22F
SILVER CITY    FAIR      85  45  24 N7        30.14S

$$
NMZ407-409-411-412-300000-
SOUTHERN DESERTS

CITY           SKY/WX    TMP DP  RH WIND       PRES   REMARKS
LORDSBURG      FAIR      93  37  14 E12G17    30.00F
DEMING         FAIR      95  47  19 E12       30.01F
LAS CRUCES     FAIR      96  42  16 SE10G20   30.02F
HOLLOMAN AFB   FAIR      98  48  18 S15       29.96F
ALAMOGORDO     FAIR      97  46  17 SW10G18   29.98F
T OR C         FAIR      90  46  21 NW13      30.07S

$$
NMZ519>523-300000-
CENTRAL VALLEYS/CENTRAL HIGHLANDS

CITY           SKY/WX    TMP DP  RH WIND       PRES   REMARKS
ALBUQUERQUE    PTSUNNY   88  41  19 S17G25    30.14R
DOUBLE EAGLE   PTSUNNY   88  54  31 SW24      30.15R
MORIARTY ARPT  LGT RAIN  66  52  60 SE23      30.25F
CLINES CORNERS LGT RAIN  75  37  25 W40G49    30.23F
BELEN          FAIR      88  40  18 SW22G28   30.08S
SOCORRO        FAIR      88  41  19 W8        30.05S

$$
NMZ524>526-539-540-300000-
SOUTHCENTRAL MOUNTAINS

CITY           SKY/WX    TMP DP  RH WIND       PRES   REMARKS
RUIDOSO          N/A     81  43  26 SE13G22   30.25F

$$
NMZ527>531-300000-
NORTHEAST HIGHLANDS/NORTHEAST PLAINS

CITY           SKY/WX    TMP DP  RH WIND       PRES   REMARKS
LAS VEGAS      TSTM      59  52  77 N14       30.29R
RATON          LGT RAIN  67  53  61 W7        30.13F
CLAYTON        TSTM      72  61  68 SE24G37   30.09S

$$
NMZ532>537-300000-
EASTCENTRAL PLAINS

CITY           SKY/WX    TMP DP  RH WIND       PRES   REMARKS
TUCUMCARI      FAIR      96  48  19 S20G26    29.98F
CANNON AFB     FAIR      92  52  25 S14G20    30.04F
CLOVIS AIRPORT FAIR      91  55  29 S14G24    30.05S

$$
NMZ028-029-538-300000-
SOUTHEAST PLAINS

CITY           SKY/WX    TMP DP  RH WIND       PRES   REMARKS
ROSWELL        FAIR      96  50  20 SE18G25   29.98F
ARTESIA        FAIR      95  55  26 SE17G24   29.98F
CARLSBAD       FAIR      95  52  23 E12       29.97F
HOBBS          MOSUNNY   91  52  25 SE14G22   30.03F


$$




USA.gov is the U.S. government's official web portal to all federal, state and local government web resources and services.